UAE316 OMDB-RJBB

Flight info

Callsign UAE316
Flight time N/A
Altitude 35000
Route IVURO M677 LALDO B505 NADSO A777 VAXIM L301 RASKI L639 BPL A791 JJS Q19 CEA B465 CTG A599 LINSO/K0926S1065 A599 SGM A581 WHA R343 PK W116 JTN G327 LAMEN/N0494F350 A593 SADLI Y590 BEDAR Y591 FUE Y35 IGLEV
Aircraft B77W/H-SDE1E2E3FGHIJ2J3J4J5M1RWXY/LB1D1

Departure

Time 2026-05-04 02:48
Airport Dubai International Airport (OMDB)

Arrival

Time N/A
Airport Kansai International Airport (RJBB)
Time Latitude Longitude Altitude Speed Heading
2026-05-04 02:15 25.25330 55.35137 26 ft 0 kts 31°
2026-05-04 02:30 25.25311 55.35124 30 ft 4 kts 31°
2026-05-04 02:30 25.25290 55.35110 31 ft 4 kts 31°
2026-05-04 02:30 25.25270 55.35096 31 ft 2 kts 31°
2026-05-04 02:30 25.25251 55.35084 31 ft 4 kts 20°
2026-05-04 02:31 25.25227 55.35078 31 ft 4 kts 358°
2026-05-04 02:31 25.25203 55.35083 31 ft 4 kts 330°
2026-05-04 02:31 25.25184 55.35100 31 ft 4 kts 309°
2026-05-04 02:31 25.25171 55.35119 31 ft 1 kts 301°
2026-05-04 02:35 25.25173 55.35116 31 ft 2 kts 301°
2026-05-04 02:36 25.25189 55.35087 31 ft 6 kts 302°
2026-05-04 02:36 25.25218 55.35036 30 ft 9 kts 303°
2026-05-04 02:36 25.25257 55.34968 29 ft 12 kts 302°
2026-05-04 02:36 25.25304 55.34888 29 ft 12 kts 307°
2026-05-04 02:37 25.25372 55.34832 31 ft 12 kts 337°
2026-05-04 02:37 25.25457 55.34818 31 ft 12 kts
2026-05-04 02:37 25.25537 55.34852 30 ft 12 kts 30°
2026-05-04 02:37 25.25611 55.34901 29 ft 12 kts 31°
2026-05-04 02:38 25.25685 55.34950 29 ft 12 kts 31°
2026-05-04 02:38 25.25758 55.34999 29 ft 12 kts 31°
2026-05-04 02:38 25.25832 55.35049 31 ft 12 kts 32°
2026-05-04 02:38 25.25906 55.35099 29 ft 12 kts 31°
2026-05-04 02:39 25.25980 55.35149 29 ft 12 kts 31°
2026-05-04 02:39 25.26053 55.35198 26 ft 12 kts 31°
2026-05-04 02:39 25.26127 55.35247 27 ft 12 kts 31°
2026-05-04 02:39 25.26197 55.35294 28 ft 12 kts 32°
2026-05-04 02:40 25.26301 55.35366 30 ft 22 kts 32°
2026-05-04 02:40 25.26391 55.35425 28 ft 15 kts 30°
2026-05-04 02:40 25.26416 55.35521 27 ft 15 kts 116°
2026-05-04 02:40 25.26363 55.35615 26 ft 15 kts 124°
2026-05-04 02:41 25.26309 55.35710 26 ft 15 kts 121°
2026-05-04 02:41 25.26256 55.35806 26 ft 15 kts 122°
2026-05-04 02:41 25.26203 55.35901 26 ft 15 kts 122°
2026-05-04 02:41 25.26150 55.35996 26 ft 15 kts 121°
2026-05-04 02:42 25.26096 55.36092 27 ft 15 kts 121°
2026-05-04 02:42 25.26060 55.36156 27 ft 15 kts 122°
2026-05-04 02:42 25.26006 55.36251 27 ft 15 kts 122°
2026-05-04 02:42 25.25920 55.36403 28 ft 29 kts 122°
2026-05-04 02:43 25.25814 55.36592 27 ft 29 kts 122°
2026-05-04 02:43 25.25704 55.36786 27 ft 29 kts 121°
2026-05-04 02:43 25.25599 55.36974 27 ft 29 kts 122°
2026-05-04 02:43 25.25491 55.37166 27 ft 29 kts 122°
2026-05-04 02:44 25.25383 55.37357 28 ft 29 kts 121°
2026-05-04 02:44 25.25276 55.37549 28 ft 29 kts 122°
2026-05-04 02:44 25.25168 55.37740 28 ft 29 kts 122°
2026-05-04 02:44 25.25061 55.37931 27 ft 29 kts 121°
2026-05-04 02:45 25.24982 55.38072 27 ft 19 kts 122°
2026-05-04 02:45 25.24926 55.38169 27 ft 3 kts 128°
2026-05-04 02:45 25.24912 55.38185 26 ft 3 kts 139°
2026-05-04 02:45 25.24893 55.38196 27 ft 3 kts 159°
2026-05-04 02:46 25.24856 55.38193 28 ft 9 kts 196°
2026-05-04 02:46 25.24791 55.38154 30 ft 11 kts 216°
2026-05-04 02:46 25.24774 55.38092 31 ft 8 kts 278°
2026-05-04 02:46 25.24782 55.38071 30 ft 6 kts 297°
2026-05-04 02:47 25.24899 55.37850 30 ft 68 kts 301°
2026-05-04 02:47 25.25265 55.37192 32 ft 132 kts 301°
2026-05-04 02:47 25.25845 55.36149 31 ft 183 kts 302°
2026-05-04 02:47 25.26572 55.34853 205 ft 206 kts 299°
2026-05-04 02:48 25.27314 55.33514 659 ft 205 kts 300°
2026-05-04 02:48 25.28066 55.32175 1293 ft 200 kts 302°
2026-05-04 02:48 25.28800 55.30911 1963 ft 198 kts 301°
2026-05-04 02:48 25.29720 55.29725 2157 ft 215 kts 329°
2026-05-04 02:49 25.31221 55.29402 2480 ft 229 kts 359°
2026-05-04 02:49 25.32831 55.29497 2908 ft 234 kts 357°
2026-05-04 02:49 25.34461 55.29551 3439 ft 236 kts 357°
2026-05-04 02:49 25.36112 55.29606 3974 ft 238 kts 357°
2026-05-04 02:50 25.37775 55.29653 4526 ft 240 kts 357°
2026-05-04 02:50 25.39440 55.29865 4937 ft 247 kts 19°
2026-05-04 02:50 25.40867 55.31013 5127 ft 267 kts 49°
2026-05-04 02:50 25.42036 55.32693 5347 ft 282 kts 50°
2026-05-04 02:51 25.43276 55.34419 5794 ft 291 kts 49°
2026-05-04 02:51 25.44556 55.36183 6353 ft 296 kts 49°
2026-05-04 02:51 25.45857 55.37970 6941 ft 299 kts 49°
2026-05-04 02:51 25.47168 55.39766 7572 ft 301 kts 49°
2026-05-04 02:52 25.48492 55.41579 8153 ft 304 kts 49°
2026-05-04 02:52 25.49801 55.43436 8711 ft 309 kts 50°
2026-05-04 02:52 25.51120 55.45336 9290 ft 312 kts 50°
2026-05-04 02:52 25.52382 55.47298 9788 ft 316 kts 62°
2026-05-04 02:53 25.52927 55.49668 10209 ft 324 kts 91°
2026-05-04 02:53 25.52453 55.52146 10389 ft 340 kts 117°
2026-05-04 02:53 25.51218 55.54432 10543 ft 355 kts 124°
2026-05-04 02:53 25.49838 55.56796 10693 ft 376 kts 124°
2026-05-04 02:54 25.48382 55.59293 10878 ft 395 kts 124°
2026-05-04 02:54 25.46882 55.61885 11315 ft 405 kts 123°
2026-05-04 02:54 25.45357 55.64550 11884 ft 412 kts 122°
2026-05-04 02:54 25.43821 55.67241 12621 ft 415 kts 122°